| time (UTC) | temp C | wind direction | speed KPH | gust KPH | rain 1hr cm | rain 24hr cm | rain mn cm | humidity % | barometer mb |
| 20260901080030 | 11 | 162 | 3.2 | 6.4 | 0.00 | 0.00 | 0.00 | 68 | 1012.6 |
| 20260901073031 | 11 | 150 | 3.2 | 6.4 | 0.00 | 0.00 | 0.00 | 63 | 1012.4 |
| 20260901064531 | 12 | 153 | 4.8 | 9.7 | 0.00 | 0.00 | 0.00 | 58 | 1012.6 |
| 20260901063031 | 13 | 163 | 4.8 | 11.3 | 0.00 | 0.00 | 0.00 | 57 | 1012.7 |
| 20260901061530 | 13 | 154 | 4.8 | 11.3 | 0.00 | 0.00 | 0.00 | 55 | 1012.9 |
| 20260901054532 | 13 | 154 | 6.4 | 9.7 | 0.00 | 0.00 | 0.00 | 57 | 1012.9 |
| 20260901053031 | 13 | 156 | 4.8 | 8.0 | 0.00 | 0.00 | 0.00 | 58 | 1012.9 |
| 20260901050032 | 13 | 171 | 3.2 | 9.7 | 0.00 | 0.00 | 0.00 | 59 | 1012.9 |
| 20260901044532 | 15 | 138 | 3.2 | 6.4 | 0.00 | 0.00 | 0.00 | 57 | 1012.9 |
| 20260901043030 | 15 | 170 | 6.4 | 11.3 | 0.00 | 0.00 | 0.00 | 55 | 1012.7 |
| 20260901040030 | 15 | 158 | 6.4 | 11.3 | 0.00 | 0.00 | 0.00 | 59 | 1012.5 |
| 20260901034533 | 16 | 167 | 4.8 | 9.7 | 0.00 | 0.00 | 0.00 | 59 | 1012.5 |
| 20260901033033 | 18 | 167 | 3.2 | 6.4 | 0.00 | 0.00 | 0.00 | 53 | 1012.2 |
| 20260901031606 | 18 | 168 | 4.8 | 14.5 | 0.00 | 0.00 | 0.00 | 53 | 1012.2 |
| 20260901030033 | 18 | 167 | 6.4 | 9.7 | 0.00 | 0.00 | 0.00 | 54 | 1012.1 |
| 20260901023102 | 19 | 178 | 8.0 | 11.3 | 0.00 | 0.00 | 0.00 | 55 | 1011.9 |
| 20260901021607 | 20 | 178 | 6.4 | 9.7 | 0.00 | 0.00 | 0.00 | 53 | 1011.8 |
| 20260901020031 | 21 | 183 | 3.2 | 8.0 | 0.00 | 0.00 | 0.00 | 46 | 1011.8 |
| 20260901014529 | 21 | 171 | 6.4 | 11.3 | 0.00 | 0.00 | 0.00 | 44 | 1011.8 |
| 20260901013105 | 23 | 224 | 4.8 | 11.3 | 0.00 | 0.00 | 0.00 | 38 | 1011.7 |
| 20260901011531 | 24 | 250 | 8.0 | 16.1 | 0.00 | 0.00 | 0.00 | 36 | 1011.7 |
| 20260901010028 | 25 | 242 | 9.7 | 17.7 | 0.00 | 0.00 | 0.00 | 37 | 1011.7 |
| 20260901004529 | 25 | 252 | 6.4 | 12.9 | 0.00 | 0.00 | 0.00 | 39 | 1011.8 |
| 20260901003033 | 25 | 264 | 3.2 | 12.9 | 0.00 | 0.00 | 0.00 | 39 | 1011.8 |
| 20260901001530 | 26 | 238 | 4.8 | 11.3 | 0.00 | 0.00 | 0.00 | 38 | 1011.9 |
| 20260901000030 | 27 | 218 | 4.8 | 11.3 | 0.00 | 0.00 | 0.00 | 37 | 1012.0 |
| 20260831234530 | 26 | 234 | 0.0 | 8.0 | 0.00 | 0.00 | 0.00 | 35 | 1012.0 |
| 20260831233027 | 27 | 249 | 6.4 | 12.9 | 0.00 | 0.00 | 0.00 | 33 | 1012.1 |
| 20260831230033 | 27 | 205 | 4.8 | 9.7 | 0.00 | 0.00 | 0.00 | 32 | 1012.4 |
| 20260831224532 | 27 | 289 | 6.4 | 16.1 | 0.00 | 0.00 | 0.00 | 32 | 1012.6 |
| 20260831223033 | 27 | 304 | 8.0 | 17.7 | 0.00 | 0.00 | 0.00 | 33 | 1012.7 |
| 20260831221531 | 27 | 287 | 6.4 | 12.9 | 0.00 | 0.00 | 0.00 | 34 | 1012.9 |
| 20260831220030 | 27 | 255 | 4.8 | 14.5 | 0.00 | 0.00 | 0.00 | 35 | 1013.1 |
| 20260831213104 | 27 | 264 | 8.0 | 20.9 | 0.00 | 0.00 | 0.00 | 36 | 1013.4 |
| 20260831211533 | 26 | 263 | 8.0 | 17.7 | 0.00 | 0.00 | 0.00 | 37 | 1013.5 |
| 20260831210030 | 25 | 307 | 6.4 | 20.9 | 0.00 | 0.00 | 0.00 | 39 | 1013.6 |
| 20260831204529 | 25 | 305 | 11.3 | 25.7 | 0.00 | 0.00 | 0.00 | 39 | 1013.7 |
| 20260831203031 | 25 | 294 | 12.9 | 24.1 | 0.00 | 0.00 | 0.00 | 40 | 1013.9 |
| 20260831201532 | 24 | 325 | 8.0 | 20.9 | 0.00 | 0.00 | 0.00 | 41 | 1014.3 |
| 20260831200030 | 24 | 314 | 9.7 | 17.7 | 0.00 | 0.00 | 0.00 | 41 | 1014.5 |
| 20260831194528 | 24 | 296 | 6.4 | 17.7 | 0.00 | 0.00 | 0.00 | 41 | 1014.7 |
| 20260831193031 | 23 | 301 | 8.0 | 20.9 | 0.00 | 0.00 | 0.00 | 42 | 1014.9 |
| 20260831191530 | 23 | 303 | 4.8 | 14.5 | 0.00 | 0.00 | 0.00 | 45 | 1015.2 |
| 20260831190034 | 21 | 304 | 6.4 | 16.1 | 0.00 | 0.00 | 0.00 | 51 | 1015.8 |
| 20260831183031 | 21 | 292 | 4.8 | 11.3 | 0.00 | 0.00 | 0.00 | 55 | 1016.1 |
| 20260831181529 | 20 | 279 | 3.2 | 9.7 | 0.00 | 0.00 | 0.00 | 59 | 1016.5 |
| 20260831174527 | 17 | 236 | 1.6 | 8.0 | 0.00 | 0.00 | 0.00 | 64 | 1016.8 |
| 20260831171602 | 16 | 264 | 1.6 | 8.0 | 0.00 | 0.00 | 0.00 | 66 | 1017.1 |
| 20260831170031 | 16 | 276 | 0.0 | 6.4 | 0.00 | 0.00 | 0.00 | 68 | 1017.3 |
| 20260831164530 | 15 | 117 | 0.0 | 4.8 | 0.00 | 0.00 | 0.00 | 71 | 1017.5 |
| 20260831163030 | 14 | 296 | 0.0 | 3.2 | 0.00 | 0.00 | 0.00 | 76 | 1017.6 |
| 20260831161531 | 13 | 315 | 0.0 | 1.6 | 0.00 | 0.00 | 0.00 | 81 | 1017.8 |
| 20260831160028 | 12 | 83 | 0.0 | 3.2 | 0.00 | 0.00 | 0.00 | 88 | 1017.9 |
| 20260831153028 | 10 | 157 | 0.0 | 3.2 | 0.00 | 0.00 | 0.00 | 94 | 1017.8 |
| 20260831151531 | 8 | 157 | 0.0 | 3.2 | 0.00 | 0.00 | 0.00 | 95 | 1017.8 |
| 20260831150042 | 7 | 157 | 0.0 | 3.2 | 0.00 | 0.00 | 0.00 | 94 | 1017.7 |
| 20260831144530 | 6 | 162 | 1.6 | 6.4 | 0.00 | 0.00 | 0.00 | 94 | 1017.3 |
| 20260831141531 | 6 | 154 | 3.2 | 6.4 | 0.00 | 0.00 | 0.00 | 94 | 1017.3 |
| 20260831140109 | 6 | 178 | 3.2 | 4.8 | 0.00 | 0.00 | 0.00 | 94 | 1017.2 |
| 20260831134532 | 5 | 160 | 3.2 | 6.4 | 0.00 | 0.00 | 0.00 | 93 | 1017.1 |
| 20260831133032 | 5 | 154 | 3.2 | 4.8 | 0.00 | 0.00 | 0.00 | 93 | 1017.2 |
| 20260831131527 | 6 | 168 | 1.6 | 6.4 | 0.00 | 0.00 | 0.00 | 93 | 1017.3 |
| 20260831130030 | 6 | 172 | 3.2 | 8.0 | 0.00 | 0.00 | 0.00 | 92 | 1017.3 |
| 20260831124531 | 6 | 171 | 3.2 | 8.0 | 0.00 | 0.00 | 0.00 | 92 | 1017.3 |
| 20260831123105 | 6 | 157 | 3.2 | 6.4 | 0.00 | 0.00 | 0.00 | 92 | 1017.2 |
| 20260831120028 | 6 | 164 | 3.2 | 6.4 | 0.00 | 0.00 | 0.00 | 91 | 1017.3 |
| 20260831114530 | 6 | 161 | 3.2 | 6.4 | 0.00 | 0.00 | 0.00 | 91 | 1017.3 |
| 20260831111530 | 7 | 168 | 3.2 | 6.4 | 0.00 | 0.00 | 0.00 | 91 | 1017.3 |
| 20260831110107 | 6 | 156 | 4.8 | 8.0 | 0.00 | 0.00 | 0.00 | 91 | 1017.4 |
| 20260831104531 | 6 | 160 | 3.2 | 6.4 | 0.00 | 0.00 | 0.00 | 90 | 1017.4 |
| 20260831103032 | 6 | 135 | 1.6 | 6.4 | 0.00 | 0.00 | 0.00 | 90 | 1017.4 |
| 20260831101528 | 7 | 169 | 3.2 | 6.4 | 0.00 | 0.00 | 0.00 | 89 | 1017.4 |
| 20260831100029 | 7 | 142 | 3.2 | 6.4 | 0.00 | 0.00 | 0.00 | 88 | 1017.6 |
| 20260831093029 | 7 | 181 | 3.2 | 6.4 | 0.00 | 0.00 | 0.00 | 87 | 1018.0 |
| 20260831091605 | 8 | 137 | 3.2 | 6.4 | 0.00 | 0.00 | 0.00 | 87 | 1018.0 |
| 20260831090109 | 7 | 153 | 3.2 | 8.0 | 0.00 | 0.00 | 0.00 | 88 | 1018.1 |
| 20260831083031 | 7 | 175 | 1.6 | 4.8 | 0.00 | 0.00 | 0.00 | 85 | 1018.3 |
| 20260831081529 | 8 | 180 | 0.0 | 6.4 | 0.00 | 0.00 | 0.00 | 85 | 1018.5 |